This is the latest recevied weather packets stored in our database for station/object W4SNA-3. If no packets are shown the sender has not sent any weather packets the latest 1 day(s).
| Time | Temp. | Humidity | Pressure | Rain* | Wind** | Luminosity | Snow |
|---|---|---|---|---|---|---|---|
| 1778029035 | 15.56° C | 58% | 1012.3 hPa | 0 mm | - | - | - |
| 1778028394 | 15.56° C | 58% | 1012.3 hPa | 0 mm | - | - | - |
| 1778027624 | 15.56° C | 57% | 1012.2 hPa | 0 mm | - | - | - |
| 1778027324 | 16.11° C | 56% | 1012.2 hPa | 0 mm | - | - | - |
| 1778027024 | 16.11° C | 56% | 1012.2 hPa | 0 mm | - | - | - |
| 1778026724 | 16.11° C | 56% | 1012.2 hPa | 0 mm | - | - | - |
| 1778026424 | 16.11° C | 55% | 1012 hPa | 0 mm | - | - | - |
| 1778025824 | 16.11° C | 55% | 1012.3 hPa | 0 mm | - | - | - |
| 1778021724 | 17.78° C | 54% | 1012 hPa | 0 mm | - | - | - |
| 1778020712 | 17.78° C | 53% | 1011.8 hPa | 0 mm | - | - | - |
| 1778016956 | 19.44° C | 49% | 1012.6 hPa | 0 mm | - | - | - |
| 1778016074 | 19.44° C | 51% | 1012.9 hPa | 0 mm | - | - | - |
| 1778012897 | 21.67° C | 50% | 1013 hPa | 0 mm | - | - | - |
| 1778012593 | 21.67° C | 49% | 1012.9 hPa | 0 mm | - | - | - |
| 1778011693 | 21.67° C | 43% | 1013 hPa | 0 mm | - | - | - |
| 1778011406 | 21.11° C | 47% | 1013 hPa | 0 mm | - | - | - |
| 1778009893 | 21.67° C | 43% | 1013.4 hPa | 0 mm | - | - | - |
| 1778008244 | 21.11° C | 47% | 1013.7 hPa | 0 mm | - | - | - |
| 1778007644 | 21.11° C | 44% | 1013.8 hPa | 0 mm | - | - | - |
| 1778007344 | 21.11° C | 43% | 1013.9 hPa | 0 mm | - | - | - |
* Rain latest hour (hover to see other rain measurements)
** Current wind speed in m/s (hover to see current wind gust speed)